CW5066 Weather Reports


time (UTC)temp
C
wind
direction
speed
KPH
gust
KPH
rain 1hr
cm
rain 24hr
cm
rain mn
cm
humidity
%
barometer
mb
20260906225015 21 23 3.2 14.5 0.00 0.00 0.00 47 1027.5
20260906224015 22 23 3.2 8.0 0.00 0.00 0.00 44 1027.9
20260906223017 23 68 4.8 16.1 0.00 0.00 0.00 42 1028.0
20260906222015 23 90 4.8 12.9 0.00 0.00 0.00 40 1028.7
20260906221016 23 23 3.2 9.7 0.00 0.00 0.00 43 1028.2
20260906220015 22 90 1.6 9.7 0.00 0.00 0.00 41 1028.1
20260906215016 23 68 4.8 14.5 0.00 0.00 0.00 41 1028.6
20260906214015 22 68 4.8 11.3 0.00 0.00 0.00 43 1028.1
20260906213015 21 68 3.2 8.0 0.00 0.00 0.00 44 1027.9
20260906212015 21 90 1.6 6.4 0.00 0.00 0.00 46 1028.1
20260906211015 21 23 4.8 9.7 0.00 0.00 0.00 45 1028.0
20260906210016 21 23 1.6 11.3 0.00 0.00 0.00 46 1027.5
20260906205035 22 23 3.2 12.9 0.00 0.00 0.00 44 1028.3
20260906204015 23 0 6.4 17.7 0.00 0.00 0.00 41 1029.1
20260906203017 23 113 3.2 9.7 0.00 0.00 0.00 37 1029.4
20260906202017 25 90 3.2 14.5 0.00 0.00 0.00 34 1029.8
20260906201017 24 90 3.2 14.5 0.00 0.00 0.00 36 1029.2
20260906200017 23 113 6.4 19.3 0.00 0.00 0.00 37 1028.6
20260906195017 23 113 4.8 17.7 0.00 0.00 0.00 37 1028.8
20260906194017 23 90 3.2 11.3 0.00 0.00 0.00 38 1028.8
20260906193017 23 135 4.8 19.3 0.00 0.00 0.00 37 1028.4
20260906192017 23 90 6.4 16.1 0.00 0.00 0.00 39 1027.7
20260906191017 23 180 4.8 14.5 0.00 0.00 0.00 37 1027.7
20260906190017 22 158 4.8 19.3 0.00 0.00 0.00 39 1027.8
20260906185017 22 135 6.4 17.7 0.00 0.00 0.00 39 1028.0
20260906184017 22 180 4.8 19.3 0.00 0.00 0.00 38 1028.0
20260906183017 22 180 8.0 22.5 0.00 0.00 0.00 39 1028.3
20260906182037 21 180 8.0 16.1 0.00 0.00 0.00 37 1028.3
20260906181017 21 203 8.0 16.1 0.00 0.00 0.00 39 1028.8
20260906180037 21 225 8.0 16.1 0.00 0.00 0.00 37 1028.8
20260906175017 21 180 4.8 16.1 0.00 0.00 0.00 38 1029.0
20260906174017 22 203 4.8 12.9 0.00 0.00 0.00 39 1029.1
20260906173016 21 203 1.6 4.8 0.00 0.00 0.00 37 1029.3
20260906172016 21 203 6.4 16.1 0.00 0.00 0.00 37 1029.8
20260906171016 21 158 8.0 16.1 0.00 0.00 0.00 36 1029.0
20260906170017 21 225 3.2 11.3 0.00 0.00 0.00 36 1029.0
20260906165057 20 203 1.6 4.8 0.00 0.00 0.00 40 1029.0
20260906164017 20 225 4.8 11.3 0.00 0.00 0.00 40 1029.1
20260906163516 20 203 3.2 8.0 0.00 0.00 0.00 40 1029.2
20260906162516 19 225 3.2 6.4 0.00 0.00 0.00 43 1028.6
20260906161516 19 203 4.8 12.9 0.00 0.00 0.00 44 1028.6
20260906160557 19 203 4.8 9.7 0.00 0.00 0.00 45 1028.7
20260906155537 18 158 4.8 12.9 0.00 0.00 0.00 46 1028.4
20260906154517 18 180 3.2 8.0 0.00 0.00 0.00 48 1028.2
20260906153516 18 203 3.2 9.7 0.00 0.00 0.00 46 1029.2
20260906152516 18 0.0 3.2 0.00 0.00 0.00 46 1028.7
20260906151516 18 180 1.6 3.2 0.00 0.00 0.00 45 1028.7
20260906150516 17 180 1.6 3.2 0.00 0.00 0.00 46 1028.2
20260906145536 17 203 1.6 4.8 0.00 0.00 0.00 46 1028.1
20260906144517 17 135 1.6 3.2 0.00 0.00 0.00 49 1027.5
20260906143516 16 0.0 3.2 0.00 0.00 0.00 47 1027.4
20260906142516 16 0.0 3.2 0.00 0.00 0.00 50 1027.3
20260906141516 16 0.0 0.0 0.00 0.00 0.00 48 1027.2
20260906140516 16 0.0 0.0 0.00 0.00 0.00 50 1027.3
20260906135516 16 0.0 0.0 0.00 0.00 0.00 49 1027.1
20260906134516 15 0.0 0.0 0.00 0.00 0.00 50 1027.1
20260906133516 15 0.0 0.0 0.00 0.00 0.00 50 1027.7
20260906132516 15 0.0 0.0 0.00 0.00 0.00 50 1027.6
20260906131516 15 0.0 0.0 0.00 0.00 0.00 49 1027.4
20260906130516 15 0.0 0.0 0.00 0.00 0.00 50 1028.0
20260906125516 15 0.0 1.6 0.00 0.00 0.00 50 1028.0
20260906124516 15 158 1.6 3.2 0.00 0.00 0.00 50 1027.2
20260906123516 15 158 3.2 4.8 0.00 0.00 0.00 50 1028.8
20260906122536 15 180 3.2 4.8 0.00 0.00 0.00 50 1028.8
20260906121516 15 180 1.6 3.2 0.00 0.00 0.00 50 1028.9
20260906120516 15 158 1.6 3.2 0.00 0.00 0.00 50 1029.0
20260906115536 15 180 3.2 6.4 0.00 0.00 0.00 49 1029.1
20260906114516 15 180 4.8 4.8 0.00 0.00 0.00 49 1029.0
20260906113516 15 180 3.2 4.8 0.00 0.00 0.00 49 1030.3
20260906112515 15 0.0 1.6 0.00 0.00 0.00 49 1030.1
20260906111516 15 135 1.6 3.2 0.00 0.00 0.00 49 1030.1
20260906110516 15 180 1.6 4.8 0.00 0.00 0.00 49 1029.5
20260906105516 15 158 1.6 3.2 0.00 0.00 0.00 49 1029.4
20260906104516 15 180 1.6 3.2 0.00 0.00 0.00 49 1029.0
20260906103515 15 180 3.2 3.2 0.00 0.00 0.00 49 1029.5
20260906102515 15 158 3.2 6.4 0.00 0.00 0.00 49 1029.6
20260906101516 15 180 4.8 6.4 0.00 0.00 0.00 49 1029.6
20260906100515 15 180 3.2 6.4 0.00 0.00 0.00 49 1030.2
20260906095515 15 180 3.2 4.8 0.00 0.00 0.00 48 1030.2
20260906094515 15 158 1.6 3.2 0.00 0.00 0.00 48 1030.1
20260906093516 15 158 4.8 6.4 0.00 0.00 0.00 49 1030.3
20260906092515 15 180 3.2 4.8 0.00 0.00 0.00 50 1030.3
20260906091535 15 180 3.2 4.8 0.00 0.00 0.00 50 1030.3
20260906090515 14 180 3.2 6.4 0.00 0.00 0.00 52 1029.1
20260906085516 15 180 1.6 4.8 0.00 0.00 0.00 52 1029.8
20260906084536 15 180 4.8 11.3 0.00 0.00 0.00 51 1029.7
20260906083515 15 203 3.2 6.4 0.00 0.00 0.00 53 1029.7
20260906082516 15 203 4.8 6.4 0.00 0.00 0.00 52 1029.7
20260906081517 15 180 4.8 6.4 0.00 0.00 0.00 53 1029.8
20260906080517 15 180 1.6 3.2 0.00 0.00 0.00 54 1030.5
20260906075517 14 225 1.6 4.8 0.00 0.00 0.00 55 1030.1
20260906074517 14 180 4.8 6.4 0.00 0.00 0.00 56 1030.1
20260906073517 13 180 4.8 9.7 0.00 0.00 0.00 58 1029.5
20260906072517 13 180 4.8 11.3 0.00 0.00 0.00 62 1029.6
20260906071517 12 180 4.8 8.0 0.00 0.00 0.00 65 1029.1
20260906070517 12 180 3.2 4.8 0.00 0.00 0.00 67 1029.1
20260906065557 12 180 3.2 6.4 0.00 0.00 0.00 68 1029.3
20260906064517 12 203 3.2 6.4 0.00 0.00 0.00 68 1029.3
20260906063537 13 180 1.6 4.8 0.00 0.00 0.00 65 1029.9
20260906062517 13 180 3.2 4.8 0.00 0.00 0.00 62 1029.9
20260906061537 13 180 3.2 4.8 0.00 0.00 0.00 61 1030.0
20260906060517 13 180 3.2 4.8 0.00 0.00 0.00 61 1030.1
20260906055515 13 203 1.6 4.8 0.00 0.00 0.00 61 1030.2
20260906054515 14 203 3.2 4.8 0.00 0.00 0.00 60 1030.2
20260906053535 14 203 3.2 4.8 0.00 0.00 0.00 59 1030.3
20260906052516 14 203 4.8 11.3 0.00 0.00 0.00 59 1030.5
20260906051515 14 180 4.8 9.7 0.00 0.00 0.00 59 1030.6
20260906050515 14 203 3.2 11.3 0.00 0.00 0.00 59 1029.9
20260906045615 14 180 4.8 11.3 0.00 0.00 0.00 60 1029.9
20260906044515 14 225 11.3 19.3 0.00 0.00 0.00 60 1030.1
20260906043515 14 225 12.9 22.5 0.00 0.00 0.00 60 1029.3
20260906042515 14 203 6.4 17.7 0.00 0.00 0.00 59 1029.2
20260906041515 14 203 6.4 14.5 0.00 0.00 0.00 58 1029.1
20260906040535 14 225 4.8 17.7 0.00 0.00 0.00 61 1028.6
20260906035515 13 225 9.7 17.7 0.00 0.00 0.00 63 1028.7
20260906034537 13 225 8.0 16.1 0.00 0.00 0.00 65 1028.2
20260906033537 13 225 4.8 12.9 0.00 0.00 0.00 62 1028.0
20260906032517 14 225 11.3 19.3 0.00 0.00 0.00 59 1028.5
20260906031517 15 203 8.0 14.5 0.00 0.00 0.00 54 1028.2
20260906030517 15 180 6.4 12.9 0.00 0.00 0.00 51 1027.5
20260906025517 15 180 1.6 3.2 0.00 0.00 0.00 53 1026.6
20260906024537 15 180 1.6 3.2 0.00 0.00 0.00 54 1026.5
20260906023517 15 23 1.6 3.2 0.00 0.00 0.00 50 1025.6
20260906022517 15 0 3.2 6.4 0.00 0.00 0.00 52 1025.5
20260906021517 15 23 3.2 6.4 0.00 0.00 0.00 52 1025.4
20260906020517 15 68 4.8 6.4 0.00 0.00 0.00 52 1025.4
20260906015517 15 45 3.2 8.0 0.00 0.00 0.00 52 1025.5
20260906014517 15 23 4.8 12.9 0.00 0.00 0.00 52 1025.6
20260906013517 16 23 4.8 11.3 0.00 0.00 0.00 53 1025.5
20260906012517 16 0 9.7 32.2 0.00 0.00 0.00 51 1025.5
20260906011517 16 293 11.3 27.4 0.00 0.00 0.00 48 1026.7
20260906010517 17 338 1.6 6.4 0.00 0.00 0.00 45 1026.4
20260906005516 17 0 4.8 12.9 0.00 0.00 0.00 48 1026.8
20260906004516 17 23 4.8 11.3 0.00 0.00 0.00 43 1026.7
20260906003517 18 0 6.4 16.1 0.00 0.00 0.00 43 1026.8
20260906002516 18 23 6.4 16.1 0.00 0.00 0.00 44 1027.4
20260906001517 19 23 4.8 11.3 0.00 0.00 0.00 42 1027.3
20260906000536 20 0 6.4 17.7 0.00 0.00 0.00 40 1028.3
20260905235516 20 293 9.7 19.3 0.00 0.00 0.00 39 1027.8
20260905234516 19 338 9.7 20.9 0.00 0.00 0.00 40 1027.3
20260905233516 21 0 4.8 12.9 0.00 0.00 0.00 36 1027.8
20260905232517 21 0 6.4 14.5 0.00 0.00 0.00 34 1028.2
20260905231516 22 0 1.6 11.3 0.00 0.00 0.00 32 1029.0
20260905230516 21 23 1.6 8.0 0.00 0.00 0.00 34 1028.3